Regional Weather Roundup
Issued by NWS Northern Indiana

Home | Current Version | Previous Version | Graphics & Text | Print | Product List | Glossary On
Versions: 1 2 3 4 5 6 7 8 9 10 11 12 13 14 15 16 17 18 19 20 21 22 23 24 25 26 27 28 29 30 31 32 33 34 35 36 37 38 39 40 41 42 43 44 45 46 47 48 49 50
000
ASUS43 KIWX 251310
RWRIWX

KIWX WEATHER ROUNDUP
NATIONAL WEATHER SERVICE NORTHERN INDIANA
900 AM EDT SAT OCT 25 2014

NOTE: "FAIR" INDICATES FEW OR NO CLOUDS BELOW 12,000 FEET WITH NO
SIGNIFICANT WEATHER AND/OR OBSTRUCTIONS TO VISIBILITY.

* THESE STATIONS ARE NOT UNDER NWS QUALITY CONTROL. THEY ALSO MAY NOT
  REPORT WEATHER SUCH AS PRECIPITATION OR FOG.

INZ001>027-251400-
NORTHERN INDIANA

CITY           SKY/WX    TMP DP  RH WIND       PRES   REMARKS
GARY*          MOCLDY    57  54  88 W6        29.93R FOG
VALPARAISO     CLOUDY    53  53 100 W8        29.94R FOG
MICHIGAN CITY* CLOUDY    54  54 100 SW6       29.92S FOG
LAPORTE*       CLOUDY    54  54 100 W3        29.93R FOG
KNOX*          PTCLDY    49  47  93 W6        29.92R
SOUTH BEND     FAIR      51  49  92 W6        29.92R FOG
ELKHART*       MOCLDY    54  50  87 W6        29.91R FOG
GOSHEN         PTCLDY    52  50  93 SW7       29.91R FOG
MONTICELLO*    CLEAR     51  50  96 SW5       29.94R
LOGANSPORT*    CLEAR     50  48  93 SW8       29.95R FOG
ROCHESTER*     PTCLDY    54  54 100 W5        29.93S FOG
WARSAW*        PTCLDY    52  52 100 SW6       29.92R FOG
ANGOLA*        CLOUDY    55  48  76 W8        29.89R
FORT WAYNE     MOCLDY    54  51  90 SW7       29.93S FOG
HUNTINGTON*    PTCLDY   N/A N/A N/A SW6       29.92F
PERU/GRISSOM   CLEAR     53  53 100 SW8       29.94R
MARION*        PTCLDY    54  50  87 SW8       29.95F FOG

$$
INZ028>050-251400-
CENTRAL INDIANA

CITY           SKY/WX    TMP DP  RH WIND       PRES   REMARKS
LAFAYETTE      PTCLDY    50  50 100 CALM      29.96R
KOKOMO*        CLEAR     54  48  82 W8        29.96R
MUNCIE*        CLOUDY    57  51  80 SW10      29.95S
INDIANAPOLIS   CLOUDY    55  51  86 SW9       29.97S

$$
MIZ043>046-050>051-056>058-064>065-071>073-077>080-251400-
SOUTHWEST LOWER MICHIGAN

CITY           SKY/WX    TMP DP  RH WIND       PRES   REMARKS
BATTLE CREEK   CLOUDY    57  52  83 W13       29.87S
BENTON HARBOR  CLOUDY    55  54  96 W10       29.89S FOG
COLDWATER*     CLOUDY    56  54  93 W8        29.88S FOG
HILLSDALE*     MOCLDY    56  54  95 W8        29.87S FOG
HOLLAND        CLOUDY    57  54  89 W9        29.87R FOG
GRAND RAPIDS   CLOUDY    56  53  90 W14       29.85S FOG
KALAMAZOO      MOCLDY    57  53  86 W10       29.88R FOG
STURGIS*       CLOUDY    55  54  94 W12       29.89R FOG
THREE RIVERS*  CLOUDY    57  54  91 W7        29.89S FOG

$$
OHZ001>008-015>018-024>025-251400-
NORTHWEST OHIO

CITY           SKY/WX    TMP DP  RH WIND       PRES   REMARKS
WAUSEON*       FAIR      54  52  94 SW9       29.87F FOG
DEFIANCE       MOCLDY    55  51  86 SW6       29.90F FOG
FINDLAY        CLOUDY    57  50  77 SW10      29.91R HAZE
TOLEDO EXPRESS MOCLDY    53  50  89 SW8       29.88S FOG
TOLEDO METCALF PTSUNNY   53  49  86 SW10      29.89S
LIMA           PTSUNNY   55  49  80 SW8       29.93S

$$
AND FOR LAKE MICHIGAN COASTAL AND OPEN LAKE BUOY OBSERVATIONS

STATION/POSITION TEMP    WIND        PRES    VSBY  WAVE
                 AIR SEA DIR/SP/G                  HT/PER
                 (F)     (DEG/KT/KT) (MB)    (MI)  (FT/S)
CALUMET HARBOR    56     230/  4/  8 1011.9R
MICHIGAN CITY     56     240/ 13/ 15   N/A
SAINT JOSEPH      56                 1012.5F
SOUTH LAKE BUOY   55 54  250/ 12/ 16 1011.5R         2/ 3

$$
&&



USA.gov is the U.S. government's official web portal to all federal, state and local government web resources and services.